Torna al catalogo

STARLINK-5365

AttivoComunicazioniVLEO
NORAD 55498·PAYLOAD·🇺🇸 United States

Lanciato Feb 2, 2023 da Cape Canaveral Space Force Station

Loading…

Prossimi Passaggi (prossime 24 ore)

TLE

AggiornatoSource: CelesTrak SupGP

Epoca: Sep 15, 2026, 02:44 UTC

1 55498C 23015BB  26258.11437500  .00009647  00000+0  34947-3 0  2589
2 55498  43.0041 350.2353 0002357 271.4091  29.4683 15.27567960    18

Traccia STARLINK-5365 in tempo reale con AllMySat

Download on the App Store